Location: *
(43.4667°N, 11.6833°E)
Time: 20:14:29
(UTC+00:00)

ATLAS CENTAUR R/B - Pass Details

Date: 19 July 2019
Orbit: 446 x 703 km, 64.7° (Epoch: 25 July)

Event Time Altitude Azimuth Distance (km) Brightness Sun altitude
Rises 22:35:49 0° 323° (NW) 3,014 6.1 -25.0°
Reaches altitude 10° 22:38:14 10° 322° (NW) 2,064 5.0 -25.1°
Enters shadow 22:42:22 63° 286° (WNW) 694 1.8 -25.2°
